Regional Weather Roundup
Issued by NWS Cleveland, OH

Home | Current Version | Previous Version | Graphics & Text | Print | Product List | Glossary On
Versions: 1 2 3 4 5 6 7 8 9 10 11 12 13 14 15 16 17 18 19 20 21 22 23 24 25 26 27 28 29 30 31 32 33 34 35 36 37 38 39 40 41 42 43 44 45 46 47 48 49 50
091
ASUS41 KCLE 252310
RWRCLE
OHIO REGIONAL WEATHER ROUNDUP
NATIONAL WEATHER SERVICE WILMINGTON, OH
700 PM EDT THU AUG 25 2016

NOTE: "FAIR" INDICATES FEW OR NO CLOUDS BELOW 12,000 FEET WITH NO
SIGNIFICANT WEATHER AND/OR OBSTRUCTIONS TO VISIBILITY.

OHZ001>008-015>018-024>027-034-035-043-044-260000-
   NORTHWEST OHIO

CITY           SKY/WX    TMP DP  RH WIND       PRES   REMARKS
DEFIANCE       FAIR      83  70  64 W7        30.01R
FINDLAY        FAIR      85  67  54 W14       30.00S
TOLEDO EXPRESS FAIR      83  70  64 W14       29.99R
TOLEDO EXEC    FAIR      85  70  60 W18G28    29.99R
LIMA           FAIR      83  71  67 W16       30.03R
$$

OHZ009>014-019>023-028>033-038-089-260000-
   NORTHEAST OHIO

CITY           SKY/WX    TMP DP  RH WIND       PRES   REMARKS
CLE-HOPKINS    PTSUNNY   81  72  74 SW6       29.99S
CLE-LAKEFRONT  PTSUNNY   83  72  69 SW13      29.95S
CUY CO. ARPT   PTSUNNY   84  75  74 W12       29.98R HX  92
LORAIN-ELYRIA  PTSUNNY   84  69  60 W15G23    29.98R
ASHTABULA      PTSUNNY   81  76  84 CALM      29.97S
AKRON-CANTON   FAIR      87  69  54 W14G24    29.99F HX  91
WOOSTER        FAIR      84  72  67 SW13      30.00S
MANSFIELD      FAIR      85  71  63 SW8       30.02F HX  90
YOUNGSTOWN     PTSUNNY   84  69  60 SW10      29.98S THUNDER
$$

OHZ042-051>053-060>062-070>072-077>081-260000-
  SOUTHWEST OHIO

CITY           SKY/WX    TMP DP  RH WIND       PRES   REMARKS
CINC-COVINGTON FAIR      88  73  61 SW7       30.06S HX  95
CINC-LUNKEN    FAIR      88  72  58 W8        30.04S HX  94
HAMILTON       FAIR      88  72  58 W7        30.05S HX  94
DAYTON         FAIR      86  71  60 W15       30.06R HX  91
WRIGHT-PAT AFB FAIR      87  72  60 SW10      30.03S HX  93
DAYTON GENERAL FAIR      87  70  56 W12       30.05S HX  92
WILMINGTON     FAIR      87  73  62 SW9       30.06S HX  94
$$

OHZ036-037-039>041-045>050-054>059-063>069-073>076-082>088-260000-
  CENTRAL AND SOUTHEAST OHIO

CITY           SKY/WX    TMP DP  RH WIND       PRES   REMARKS
COLUMBUS       FAIR      86  72  62 W14       30.02S HX  92
OSU AIRPORT    FAIR      87  73  62 SW14      30.02F HX  94
BOLTON FIELD   SUNNY     86  75  70 SW10      30.04S HX  95
RICKENBACK AFB FAIR      87  74  66 SW8       30.02F HX  95
NEWARK         FAIR      85  75  72 SW8       30.02F HX  93
MARION         FAIR      86  70  58 W10       30.02S HX  90
LANCASTER      FAIR      86  74  67 W8        30.04S HX  94
ZANESVILLE     FAIR      87  73  62 W8        30.03S HX  94
NEW PHILLY     FAIR      87  73  62 SW8       30.01F HX  94
$$




USA.gov is the U.S. government's official web portal to all federal, state and local government web resources and services.